Home > Weather > Wakefield > Past weeks

Flag for United Kingdom Past Weather in Wakefield, England, United Kingdom — Yesterday and Last 2 Weeks

Now
50 °F

Passing clouds.


Feels Like: 46 °F
Forecast: 50 / 64 °F
Wind: 12 mph from Southwest

Location: Leeds And Bradford

Current Time: Jul 2, 2016 at 8:40:03 AM

Latest Report: Jul 2, 2016 at 7:50 AM


Visibility: N/A

Pressure: 29.71 "Hg

Humidity: 88%

Dew Point: 46 °F

Location of WakefieldLocation

Past Weather in Wakefield — Graph

°F

Wakefield Temperature Yesterday

Maximum temperature yesterday: 61 °F (at 2:20 PM)
Minimum temperature yesterday: 46 °F (at 10:20 PM)
Average temperature yesterday: 53 °F

High & Low Weather Summary for the Past Weeks

 TemperatureHumidityPressure
High72 °F (Jun 23, 4:20 PM)100% (Jun 19, 2:50 AM)30.18 "Hg (Jun 19, 2:50 AM)
Low46 °F (Jun 19, 2:50 AM)49% (Jun 21, 12:20 PM)29.47 "Hg (Jun 29, 2:20 PM)
Average56 °F82%29.90 "Hg
* Reported Jun 17 7:20 AM — Jul 2 7:20 AM, Wakefield, Weather by CustomWeather, © 2016

Note: Actual official high and low records may vary slightly from our data, if they occured in-between our weather recording intervals... More about our weather records

Advertising

Wakefield Weather History for the Previous 24 Hours

Scroll right to see more
 ConditionsComfort  
Time TempWeatherWind HumidityBarometerVisibility
7:20 AM
Sat, Jul 2
50 °FPassing clouds.16 mph88%29.71 "HgN/A
6:50 AM50 °FScattered clouds.10 mph88%29.71 "HgN/A
6:20 AM48 °FPassing clouds.13 mph94%29.71 "HgN/A
5:50 AM48 °FScattered showers. Scattered clouds.9 mph94%29.71 "HgN/A
5:20 AM46 °FScattered showers. Passing clouds.9 mph93%29.68 "HgN/A
4:50 AM46 °FPassing clouds.6 mph93%29.68 "HgN/A
4:20 AM46 °FScattered showers. Passing clouds.8 mph93%29.68 "HgN/A
3:50 AM46 °FPassing clouds.8 mph93%29.68 "HgN/A
3:20 AM46 °FPassing clouds.7 mph93%29.68 "HgN/A
2:50 AM48 °FPassing clouds.12 mph87%29.68 "HgN/A
2:20 AM48 °FPassing clouds.9 mph87%29.68 "HgN/A
1:50 AM48 °FPassing clouds.9 mph87%29.68 "HgN/A
1:20 AM46 °FPassing clouds.7 mph93%29.68 "HgN/A
12:50 AM46 °FScattered showers. Passing clouds.6 mph93%29.68 "HgN/A
12:20 AM46 °FSprinkles. Passing clouds.6 mph93%29.68 "HgN/A
11:50 PM
Fri, Jul 1
46 °FPassing clouds.9 mph87%29.68 "HgN/A
11:20 PM46 °FPassing clouds.12 mph87%29.65 "HgN/A
10:50 PM46 °FPassing clouds.10 mph93%29.65 "HgN/A
10:20 PM46 °FPassing clouds.7 mph93%29.65 "HgN/A
9:50 PM48 °FSprinkles. Scattered clouds.10 mph87%29.65 "HgN/A
9:20 PM48 °FScattered clouds.10 mph82%29.65 "HgN/A
8:50 PM50 °FSprinkles. Scattered clouds.13 mph82%29.62 "HgN/A
8:20 PM52 °FScattered clouds.15 mph82%29.62 "HgN/A
7:50 PM52 °FSprinkles. Scattered clouds.12 mph82%29.62 "HgN/A
7:20 PM54 °FSprinkles. Scattered clouds.12 mph82%29.62 "HgN/A
6:50 PM54 °FScattered clouds.12 mph82%29.62 "HgN/A
6:20 PM50 °FSprinkles. Scattered clouds.14 mph88%29.62 "HgN/A
5:50 PM54 °FSprinkles. Scattered clouds.16 mph82%29.62 "HgN/A
5:20 PM55 °FSprinkles. Scattered clouds.14 mph72%29.62 "HgN/A
4:50 PM55 °FScattered clouds.17 mph72%29.62 "HgN/A
4:20 PM54 °FSprinkles. Scattered clouds.8 mph82%29.62 "HgN/A
3:50 PM55 °FSprinkles. Scattered clouds.16 mph72%29.62 "HgN/A
3:20 PM59 °FScattered clouds.13 mph59%29.62 "HgN/A
2:50 PM59 °FScattered clouds.8 mph63%29.62 "HgN/A
2:20 PM61 °FScattered clouds.12 mph59%29.62 "HgN/A
1:50 PM57 °FSprinkles. Scattered clouds.10 mph72%29.65 "HgN/A
1:20 PM59 °FSprinkles. Scattered clouds.13 mph59%29.65 "HgN/A
12:50 PM57 °FScattered clouds.14 mph63%29.65 "HgN/A
12:20 PM57 °FScattered clouds.16 mph63%29.65 "HgN/A
11:50 AM57 °FScattered clouds.16 mph67%29.68 "HgN/A
11:20 AM57 °FScattered clouds.13 mph67%29.65 "HgN/A
10:50 AM57 °FScattered clouds.16 mph67%29.65 "HgN/A
10:20 AM54 °FScattered clouds.12 mph82%29.65 "HgN/A
9:50 AM55 °FScattered clouds.14 mph72%29.65 "HgN/A
9:20 AM55 °FScattered clouds.14 mph82%29.65 "HgN/A
8:50 AM54 °FScattered clouds.10 mph88%29.65 "HgN/A
8:20 AM52 °FScattered clouds.8 mph94%29.65 "HgN/A
Weather by CustomWeather, © 2016

See weather overviewHow to use our weather pages